Weather Roundup
Issued by NWS

Home | Current Version | Previous Version | Text Only | Print | Product List | Glossary On
Versions: 1 2 3 4 5 6 7 8 9 10 11 12 13 14 15 16 17 18 19 20 21 22 23 24 25 26 27 28 29 30 31 32 33 34 35 36 37 38 39 40 41 42 43 44 45 46 47 48 49 50
000
NZUS93 KARX 312010
HRRWXR

CURRENT HOURLY OBSERVATIONS ACROSS
MUCH OF THE UPPER MISSISSIPPI VALLEY
NATIONAL WEATHER SERVICE LA CROSSE WI
300 PM CDT THU JUL 31 2014


...SOUTHEAST MINNESOTA...


CITY           SKY/WX    TMP DP  RH WIND       PRES   REMARKS
ROCHESTER      MOSUNNY   79  57  46 NW9       30.06F
ROCHESTER/MAYO FAIR      78  48  34 W10G17    30.05S
WINONA         SUNNY     81  54  39 W7        30.02F
AUSTIN         SUNNY     75  52  43 W5        30.06S
ALBERT LEA     MOSUNNY   81  52  36 NW5       30.06S
DODGE CENTER   MOSUNNY   79  54  41 W7        30.06S
PRESTON        MOSUNNY   76  60  57 NW10      30.06F
OWATONNA       MOSUNNY   81  54  39 W9        30.05S
FARIBAULT      SUNNY     84  46  26 SW8       30.04F
$$

...ELSEWHERE IN MINNESOTA...


CITY           SKY/WX    TMP DP  RH WIND       PRES   REMARKS
MINNEAPOLIS    FAIR      83  50  31 NW8       30.02S
INTNL FALLS    SUNNY     78  53  41 N8        29.99S
DULUTH         MOSUNNY   78  54  43 NW8       29.98S
RED WING       MOSUNNY   81  52  36 W9        30.01S
REDWOOD FALLS  MOSUNNY   83  52  34 N7        30.04F
MANKATO        SUNNY     79  54  41 W8        30.05S
WORTHINGTON    SUNNY     77  55  47 SW7       30.09S
FAIRMONT       MOSUNNY   81  54  39 N7        30.06S
$$

...SOUTHWEST WISCONSIN...


CITY           SKY/WX    TMP DP  RH WIND       PRES   REMARKS
LA CROSSE      SUNNY     82  56  40 W14       30.01F
PRAIRIE DU CHI SUNNY     81  51  35 W8        30.03S
BOSCOBEL       SUNNY     84  56  38 W7        30.03F
LONE ROCK      SUNNY     83  61  47 NW10      30.02S
PLATTEVILLE    SUNNY     79  58  48 W10       30.05F
FORT MC COY    MOSUNNY   80  55  42 W8        30.03S
CAMP DOUGLAS   MOSUNNY   79  61  53 NW12      30.01S
VIROQUA        MOCLDY    79  57  47 W9        30.05S
WIS DELLS      MOSUNNY   81  50  34 NW10      30.02S
$$

...ELSEWHERE IN WISCONSIN...


CITY           SKY/WX    TMP DP  RH WIND       PRES   REMARKS
MILWAUKEE      MOSUNNY   82  55  39 W12       30.00S
MADISON        MOSUNNY   82  57  42 W8        30.01F
GREEN BAY      MOSUNNY   80  62  54 W8        29.95F
EAU CLAIRE     SUNNY     81  56  42 W14       29.99F
BLACK RVR FLS  FAIR      81  56  41 W14G23    30.01S
MEDFORD        MOSUNNY   72  61  67 NW7G18    30.00S
WAUSAU         LGT RAIN  71  59  65 NW3       29.97S
WIS RAPIDS     MOSUNNY   81  59  47 W14G21    30.00F
MARSHFIELD     MOSUNNY   79  59  50 W14       30.00S
RICE LAKE      PTSUNNY   77  60  54 W7        30.01S
$$

...NORTHEAST IOWA...


CITY           SKY/WX    TMP DP  RH WIND       PRES   REMARKS
WATERLOO       PTSUNNY   81  54  39 W10       30.05S
DUBUQUE        MOSUNNY   78  57  48 W13       30.06S
DECORAH        MOSUNNY   77  57  50 NW9       30.05S
MASON CITY     MOSUNNY   81  58  45 W12       30.08S
CHARLES CITY   PTSUNNY   77  59  53 W9        30.07S
OELWEIN        SUNNY     77  57  50 W9        30.07S
$$

...ELSEWHERE IN IOWA...


CITY           SKY/WX    TMP DP  RH WIND       PRES   REMARKS
DES MOINES     MOSUNNY   82  55  39 NW7       30.07S
IOWA CITY      MOSUNNY   81  60  48 W8        30.07F
FORT DODGE     MOSUNNY   81  57  44 W7        30.08F
MARSHALLTOWN   MOSUNNY   80  60  50 W6        30.07S
CEDAR RAPIDS   MOSUNNY   80  60  50 W8        30.06S
$$

...NORTHERN ILLINOIS...


CITY           SKY/WX    TMP DP  RH WIND       PRES   REMARKS
CHICAGO-OHARE  MOSUNNY   84  53  34 W17G25    30.02F
DUPAGE         SUNNY     82  59  45 W14       30.03F
CHICAGO-MIDWAY MOSUNNY   84  57  39 W10G18    30.02F
MOLINE         MOSUNNY   83  57  41 W8        30.05F
ROCKFORD       MOSUNNY   83  57  41 W10G20    30.05S
STERLING       PTSUNNY   82  63  51 NW13      30.06R
PEORIA         SUNNY     84  58  40 SW8       30.07F
$$

NOTE: "FAIR" INDICATES FEW OR NO CLOUDS BELOW 12,000 FEET WITH NO
SIGNIFICANT WEATHER AND/OR OBSTRUCTIONS TO VISIBILITY. WIND
SPEEDS ARE IN MILES-PER-HOUR.



USA.gov is the U.S. government's official web portal to all federal, state and local government web resources and services.